Photometre #117[Polarized_P] IAOCA-KRSU AOT

File : 20221123_117.hum

23/11/2022,02:43:49,TEMP=2.4,BA=5.64,STAT.A
23/11/2022,02:48:11,TEMP=2.4,BA=5.64,STAT.A
23/11/2022,02:53:20,TEMP=2.4,BA=5.64,STAT.A
23/11/2022,02:59:31,TEMP=2.5,BA=5.64,STAT.A
23/11/2022,03:07:08,TEMP=2.5,BA=5.64,STAT.A
23/11/2022,03:16:42,TEMP=2.7,BA=5.64,STAT.A
23/11/2022,03:29:12,TEMP=3.0,BA=5.64,STAT.B
23/11/2022,03:32:33,TEMP=3.1,BA=5.64,STAT.F
23/11/2022,03:47:33,TEMP=3.9,BA=5.64,STAT.D
23/11/2022,04:02:35,TEMP=5.0,BA=5.64,STAT.D
23/11/2022,04:17:34,TEMP=6.9,BA=5.64,STAT.D
23/11/2022,04:32:34,TEMP=8.3,BA=5.64,STAT.F
23/11/2022,04:49:01,TEMP=7.7,BA=5.64,STAT.D
23/11/2022,05:02:33,TEMP=7.2,BA=5.64,STAT.D
23/11/2022,05:17:33,TEMP=7.3,BA=5.64,STAT.D
23/11/2022,05:32:33,TEMP=7.4,BA=5.64,STAT.F
23/11/2022,05:47:34,TEMP=7.6,BA=5.64,STAT.D
23/11/2022,06:02:33,TEMP=7.9,BA=5.64,STAT.D
23/11/2022,06:17:34,TEMP=8.3,BA=5.64,STAT.D
23/11/2022,06:32:36,TEMP=8.7,BA=5.64,STAT.F
23/11/2022,06:52:42,TEMP=8.8,BA=4.48,STAT.D
23/11/2022,07:02:34,TEMP=8.2,BA=5.64,STAT.D
23/11/2022,07:17:33,TEMP=7.8,BA=5.64,STAT.D
23/11/2022,07:32:33,TEMP=7.6,BA=5.64,STAT.F
23/11/2022,07:47:33,TEMP=7.4,BA=5.64,STAT.D
23/11/2022,08:02:33,TEMP=7.4,BA=5.64,STAT.D
23/11/2022,08:17:33,TEMP=7.5,BA=5.64,STAT.D
23/11/2022,08:32:33,TEMP=7.6,BA=5.64,STAT.F
23/11/2022,08:47:33,TEMP=7.4,BA=5.64,STAT.D
23/11/2022,09:02:33,TEMP=7.2,BA=5.64,STAT.D
23/11/2022,09:17:33,TEMP=7.1,BA=5.64,STAT.D
23/11/2022,09:32:33,TEMP=6.9,BA=5.64,STAT.F
23/11/2022,09:35:54,TEMP=6.9,BA=5.64,STAT.B
23/11/2022,09:48:24,TEMP=6.9,BA=5.64,STAT.A
23/11/2022,09:57:58,TEMP=6.9,BA=5.64,STAT.A
23/11/2022,10:05:35,TEMP=6.9,BA=5.64,STAT.A
23/11/2022,10:11:46,TEMP=6.9,BA=5.64,STAT.A
23/11/2022,10:16:55,TEMP=6.9,BA=5.64,STAT.A
23/11/2022,10:21:17,TEMP=6.9,BA=5.64,STAT.A